Location: Grums
(59.3529°N, 13.1129°E)
Time: 03:47:16
(UTC+02:00)

Envisat - Pass Details

Date: 28 September 2021
Orbit: 764 x 766 km, 98.2° (Epoch: 25 October)

Event Time Altitude Azimuth Distance (km) Brightness Sun altitude
Rises 05:41:18 0° 19° (NNE) 3,248 6.8 -11.5°
Reaches altitude 10° 05:43:50 10° 29° (NNE) 2,317 6.2 -11.2°
Maximum altitude 05:48:28 34° 94° (E) 1,251 4.9 -10.6°
Drops below altitude 10° 05:53:04 10° 159° (SSE) 2,301 5.6 -10.0°
Sets 05:55:34 0° 169° (SSE) 3,223 6.2 -9.7°
